TimeEET,TemperatureF,Dew PointF,Humidity,Sea Level PressureIn,VisibilityMPH,Wind Direction,Wind SpeedMPH,Gust SpeedMPH,PrecipitationIn,Events,Conditions,WindDirDegrees,DateUTC
12:00 AM,51.8,32.0,47,30.09,-9999.0,SW,5.8,-,N/A,,Clear,220,2013-01-06 22:00:00
1:00 AM,51.8,33.8,50,30.09,-9999.0,WSW,5.8,-,N/A,,Clear,240,2013-01-06 23:00:00
2:00 AM,50,33,40,30.11,6,WSW,6.9,,,,,250,2013-01-07 00:00:00
2:00 AM,50.0,33.8,54,30.09,-9999.0,WSW,6.9,-,N/A,,Clear,250,2013-01-07 00:00:00
3:00 AM,50.0,33.8,54,30.09,-9999.0,WSW,3.5,-,N/A,,Clear,250,2013-01-07 01:00:00
4:00 AM,50.0,33.8,54,30.09,-9999.0,WSW,3.5,-,N/A,,Clear,240,2013-01-07 02:00:00
5:00 AM,50.0,33.8,54,30.09,-9999.0,SW,4.6,-,N/A,,Clear,220,2013-01-07 03:00:00
6:00 AM,50.0,44.6,82,30.12,-9999.0,WSW,8.1,-,N/A,,Clear,250,2013-01-07 04:00:00
7:00 AM,50.0,37.4,62,30.15,-9999.0,SW,8.1,-,N/A,,Clear,230,2013-01-07 05:00:00
8:00 AM,53.6,37.4,54,30.15,-9999.0,WSW,10.4,-,N/A,,Clear,240,2013-01-07 06:00:00
9:00 AM,59.0,37.4,45,30.18,-9999.0,West,11.5,-,N/A,,Clear,270,2013-01-07 07:00:00
10:00 AM,62.6,42.8,48,30.18,-9999.0,West,11.5,-,N/A,,Clear,270,2013-01-07 08:00:00
11:00 AM,64.4,42.8,45,30.15,-9999.0,WNW,15.0,-,N/A,,Clear,300,2013-01-07 09:00:00
12:00 PM,66.2,41.0,40,30.12,-9999.0,WNW,16.1,-,N/A,,Clear,300,2013-01-07 10:00:00
1:00 PM,68.0,39.2,35,30.09,-9999.0,NW,11.5,-,N/A,,Clear,310,2013-01-07 11:00:00
2:00 PM,69,40,23,30.10,6,WNW,11.5,,,,,300,2013-01-07 12:00:00
2:00 PM,68.0,39.2,35,30.09,-9999.0,WNW,11.5,-,N/A,,Clear,300,2013-01-07 12:00:00
3:00 PM,69.8,37.4,31,30.09,-9999.0,WNW,9.2,-,N/A,,Clear,300,2013-01-07 13:00:00
4:00 PM,69.8,30.2,23,30.09,-9999.0,WNW,11.5,-,N/A,,Clear,300,2013-01-07 14:00:00
5:00 PM,66.2,28.4,24,30.09,-9999.0,WNW,11.5,-,N/A,,Clear,300,2013-01-07 15:00:00
6:00 PM,64.4,32.0,30,30.12,-9999.0,WNW,9.2,-,N/A,,Clear,300,2013-01-07 16:00:00
7:00 PM,60.8,30.2,31,30.15,-9999.0,WNW,9.2,-,N/A,,Clear,290,2013-01-07 17:00:00
8:00 PM,60,32,23,30.17,6,SW,13.8,,,,,230,2013-01-07 18:00:00
8:00 PM,60.8,32.0,34,30.15,-9999.0,WNW,13.8,-,N/A,,Clear,290,2013-01-07 18:00:00
9:00 PM,59.0,32.0,36,30.15,-9999.0,WNW,11.5,-,N/A,,Clear,300,2013-01-07 19:00:00
10:00 PM,57.2,32.0,38,30.18,-9999.0,WNW,9.2,-,N/A,,Clear,300,2013-01-07 20:00:00
11:00 PM,53.6,30.2,41,30.18,-9999.0,NW,8.1,-,N/A,,Clear,310,2013-01-07 21:00:00